OBJECT R, 59113

Orbit data source: Space-Track

You're viewing an Uncataloged Satellite

Recently launched and/or uncataloged satellites may have evolving metadata. Metadata may include but not limited to: Owner, Maufacturer, Bus, Motor, and Mission.

OBJECT R, 59113 is a satellite in SSO that was launched on Mon, 04 Mar 2024 UTC via an FALCON 9 launch vehicle from the Air Force Western Test Range (AFWTR). Unknown objects in Earth's orbit typically refer to objects detected orbiting the Earth but have not yet been identified or cataloged. These objects could be anything from previously untracked satellites, spent rocket stages, debris from satellite collisions, or even natural meteoroids temporarily captured by Earth's gravity.

Not visible in the next 10 days
Identifier
59113, 2024-043R
Orbit
SSO
Country
Flag of TBDTBD
Related business
None
Manufacturer
Unknown
Mission
Operational Commercial Imaging
Bus & Motor
Unknown
Mass
Unknown
Launch date (UTC)
2024-03-04 (2 years ago)
Launch vehicle
FALCON 9
Launch site
Air Force Western Test Range (AFWTR)
Object type
Unknown
Shape & HBR
Box, 0.7 m
Radar Cross Section
1.360 m², Small (<0.1 m²)

Expand to show TLE details & history
Last TLE update: 13 hours ago

TLE from 13 hours ago
0 OBJECT R
1 59113U 24043R   25297.37377275  .00164902  00000-0  13860-2 0  9990
2 59113  97.5137  78.7362 0007060 309.0521  51.0111 15.69347595 91833
Epoch: 2025-10-24T08:58Z
TLE epoch observation values (Epoch: 2025-10-24T08:58:13.965Z)
Latitude
-0.00009°
Longitude
-88.84157°
Altitude
360.926 km
Speed
7.694 km/s
True Right ascension
05h 14m 56s
True Declination
0° 00' 00"
Sunlit
Object was in full shadow at epoch
Visualization orbit readout
Latitude
Unknown
Longitude
Unknown
Altitude
Unknown
Speed
Unknown
Apparent Right ascension
Unknown
Apparent Declination
Unknown
Sunlit
N/A
Visualization observer readout
Local Sidereal Time
17:30:15
Azimuth
Unknown
Elevation
Unknown
Doppler factor
Unknown
Orbital elements
Apogee altitude
362.425 km
Perigee altitude
352.914 km
Semi-major axis
6,735.806 km
Eccentricity
0.00071
Inclination
97.5137°
RAAN
78.7362°
Arg. of periapsis
309.0521°
True anomaly
51.07402°
Mean anomaly
51.0111°
Eccentric anomaly
51.04256°
Mean motion
3.92608 °/min
Orbital period
91.69 mins
BSTAR
0.001386
Loading maneuver chart data...
Computing Atmospheric mass density...
Loading historical data...
Loading historical data...
Loading historical data...
Loading historical data...
Loading historical data...
Loading historical data...
Loading historical data...

Documentation

Showing up to 5 results
|